FW1970 Weather Reports


Display with metric or nautical units.
time (UTC)temp
F
wind
direction
speed
MPH
gust
MPH
rain 1hr
in
rain 24hr
in
rain mn
in
humidity
%
barometer
mb
20260905021523 73 360 1.0 4.0 0.00 0.38 0.38 78 1012.2
20260905020026 73 360 1.0 4.0 0.00 0.38 0.38 77 1012.3
20260905014522 74 360 1.0 4.0 0.00 0.38 0.38 77 1012.4
20260905013021 74 360 2.0 4.0 0.00 0.38 0.38 77 1012.3
20260905011521 74 360 1.0 4.0 0.00 0.38 0.38 76 1012.0
20260905010021 74 360 1.0 4.0 0.00 0.38 0.38 77 1012.0
20260905004521 74 360 1.0 4.0 0.00 0.78 0.38 78 1012.1
20260905003019 74 360 1.0 4.0 0.00 0.78 0.38 78 1012.1
20260905001518 75 360 1.0 3.0 0.00 0.78 0.38 78 1012.1
20260905000017 75 360 2.0 5.0 0.00 0.78 0.38 77 1012.1
20260904234521 76 360 0.0 4.0 0.00 1.51 0.38 76 1012.0
20260904233017 76 360 2.0 4.0 0.00 1.51 0.38 75 1012.0
20260904231516 77 360 1.0 4.0 0.00 1.51 0.38 74 1012.1
20260904230029 77 360 2.0 4.0 0.00 1.51 0.38 74 1011.9
20260904224522 78 360 1.0 3.0 0.00 2.24 0.38 73 1011.7
20260904223013 79 360 1.0 4.0 0.00 2.24 0.38 72 1011.7
20260904221521 79 227 4.0 6.0 0.00 2.24 0.38 70 1011.5
20260904220114 80 265 1.0 6.0 0.00 2.24 0.38 70 1011.5
20260904214518 79 263 1.0 7.0 0.00 2.24 0.38 70 1011.6
20260904213015 79 288 2.0 8.0 0.00 2.24 0.38 69 1011.7
20260904211512 80 236 4.0 8.0 0.00 2.24 0.38 69 1011.5
20260904210011 79 311 2.0 4.0 0.00 2.24 0.38 70 1011.6
20260904204512 80 265 2.0 7.0 0.00 2.24 0.38 70 1011.8
20260904203008 81 265 0.0 3.0 0.00 2.24 0.38 70 1012.4
20260904201506 80 248 1.0 3.0 0.00 2.24 0.38 72 1012.6
20260904200009 79 147 1.0 5.0 0.00 2.24 0.38 72 1011.9
20260904194504 79 326 1.0 4.0 0.00 2.24 0.38 73 1012.2
20260904193007 80 304 0.0 3.0 0.00 2.24 0.38 72 1012.9
20260904191501 80 332 5.0 9.0 0.00 2.24 0.38 72 1013.5
20260904184601 79 314 2.0 10.0 0.00 2.24 0.38 75 1013.5
20260904183114 79 319 2.0 6.0 0.00 2.24 0.38 76 1013.5
20260904181557 79 265 4.0 9.0 0.00 2.24 0.38 75 1013.5
20260904180057 80 298 2.0 7.0 0.00 2.24 0.38 75 1013.4
20260904174555 79 319 2.0 5.0 0.00 2.24 0.38 73 1013.3
20260904173053 77 26 0.0 5.0 0.00 2.24 0.38 78 1013.7
20260904171550 76 54 2.0 5.0 0.00 2.24 0.38 80 1013.9
20260904170049 75 360 3.0 5.0 0.00 2.24 0.38 81 1014.0
20260904164549 74 360 1.0 5.0 0.00 2.24 0.38 83 1014.4
20260904163053 74 360 2.0 5.0 0.00 2.24 0.38 83 1014.3
20260904161547 74 360 0.0 4.0 0.00 2.24 0.38 83 1014.6
20260904160100 74 360 1.0 4.0 0.00 2.24 0.38 82 1014.8
20260904154548 75 360 3.0 8.0 0.00 2.24 0.38 82 1015.3
20260904153056 76 270 1.0 7.0 0.00 2.24 0.38 79 1015.1
20260904151543 78 311 1.0 4.0 0.00 2.24 0.38 77 1014.8
20260904150052 76 58 0.0 2.0 0.00 2.24 0.38 80 1014.4
20260904144539 76 58 0.0 3.0 0.00 2.25 0.38 80 1014.4
20260904143039 74 143 0.0 3.0 0.00 2.25 0.38 82 1014.3
20260904141535 74 104 1.0 4.0 0.00 2.25 0.38 82 1014.2
20260904140030 73 113 0.0 4.0 0.00 2.25 0.38 84 1014.1
20260904134531 72 133 0.0 5.0 0.00 2.43 0.38 86 1014.4
20260904133024 70 142 1.0 4.0 0.00 2.43 0.38 89 1014.5
20260904131523 70 360 1.0 4.0 0.00 2.43 0.38 88 1014.5
20260904130037 70 360 0.0 3.0 0.00 2.43 0.38 88 1014.6
20260904124522 70 360 1.0 3.0 0.00 2.52 0.38 89 1014.6
20260904123023 69 360 0.0 1.0 0.00 2.52 0.38 88 1014.9
20260904121514 70 360 0.0 1.0 0.00 2.52 0.38 89 1014.6
20260904120010 68 360 0.0 1.0 0.00 2.52 0.38 89 1014.8
20260904114507 67 360 1.0 3.0 0.00 2.52 0.38 88 1014.6
20260904113005 67 360 0.0 3.0 0.00 2.52 0.38 89 1014.4
20260904111502 67 360 0.0 0.0 0.00 2.52 0.38 88 1013.9
20260904110100 67 360 0.0 0.0 0.00 2.52 0.38 88 1014.1
20260904110002 67 360 0.0 0.0 0.00 2.52 0.38 88 1014.1
20260904104600 67 360 0.0 0.0 0.00 2.52 0.38 88 1013.9
20260904103058 67 360 0.0 2.0 0.00 2.52 0.38 88 1013.9
20260904101600 67 360 1.0 3.0 0.00 2.52 0.38 88 1013.6
20260904100057 67 360 2.0 4.0 0.00 2.52 0.38 88 1013.6
20260904094556 67 360 1.0 3.0 0.00 2.52 0.38 88 1013.4
20260904093056 67 360 1.0 3.0 0.01 2.52 0.38 88 1013.4
20260904091555 67 360 2.0 4.0 0.01 2.52 0.38 88 1013.6
20260904091525 67 360 2.0 4.0 0.01 2.52 0.38 88 1013.6
20260904090054 67 360 0.0 3.0 0.01 2.52 0.38 88 1013.5
20260904084554 67 360 0.0 0.0 0.01 2.52 0.38 88 1013.7
20260904083053 67 360 0.0 0.0 0.00 2.50 0.37 88 1013.5
20260904081558 67 360 0.0 0.0 0.00 2.50 0.37 88 1013.2
20260904080052 67 360 0.0 0.0 0.00 2.50 0.37 88 1013.2
20260904074554 67 360 0.0 0.0 0.00 2.50 0.37 88 1013.3
20260904073051 67 360 0.0 2.0 0.00 2.50 0.37 88 1013.2
20260904071550 67 360 1.0 6.0 0.00 2.50 0.37 88 1013.5
20260904070050 67 360 2.0 8.0 0.00 2.50 0.37 88 1013.4
20260904064554 67 360 2.0 8.0 0.01 2.50 0.37 88 1013.4
20260904063047 67 360 6.0 10.0 0.37 2.50 0.37 88 1013.7
20260904061551 67 360 0.0 6.0 0.37 2.50 0.37 88 1013.5
20260904060047 67 360 5.0 10.0 0.37 2.50 0.37 88 1014.0
20260904054544 67 360 2.0 11.0 0.36 2.50 0.36 88 1013.9
20260904053041 67 360 6.0 16.0 0.00 2.14 0.00 88 1014.6
20260904051539 67 360 1.0 8.0 0.00 2.14 0.00 88 1012.9
20260904050138 67 360 2.0 6.0 0.00 2.14 0.00 88 1012.5
20260904044550 67 360 3.0 6.0 0.00 2.14 0.00 88 1012.9
20260904043056 67 360 3.0 8.0 0.00 2.14 0.00 88 1013.4
20260904041533 67 360 1.0 10.0 0.00 2.14 0.00 88 1013.3
20260904040031 67 360 3.0 6.0 0.00 2.14 0.00 88 1013.4
20260904034530 67 360 4.0 9.0 0.00 2.14 2.14 88 1013.4
20260904033030 67 360 2.0 8.0 0.00 2.14 2.14 88 1013.5
20260904031529 68 360 4.0 13.0 0.00 2.14 2.14 88 1013.3
20260904030029 68 360 4.0 10.0 0.00 2.14 2.14 88 1013.5
20260904024529 68 360 1.0 5.0 0.00 2.14 2.14 88 1013.9
20260904023131 68 360 3.0 6.0 0.00 2.14 2.14 88 1014.0